James M Cox Dayton International (DAY)

 

Airport Diagram
Current Weather/Forecast (VFR Conditions)
METAR KDAY 091156Z 08013G21KT 10SM -RA FEW013 OVC050 07/04 A2987 RMK AO2 RAE04B07 SLP116 P0001 60027 70035 T00720039 10078 20072 56028 $
TAF KDAY 091140Z 0912/1012 10014G21KT 6SM SHRA BR BKN009 OVC025 FM091400 11014G20KT 4SM SHRA BR OVC008 FM091800 15011G19KT 6SM SHRA BR VCTS OVC006CB FM092100 05013KT 5SM -SHRA BR OVC008 FM100000 01012G22KT P6SM VCSH OVC007 FM100200 01012KT P6SM OVC012 FM100800 36009KT P6SM SCT015

Airport Information

All Charts
General
Chart Name View
AIRPORT DIAGRAM
TAKEOFF MINIMUMS
ALTERNATE MINIMUMS
HOT SPOT

Departures
Chart Name Download
DAYTON SEVEN
DAYTON SEVEN, CONT.1

Arrivals
Chart Name Download
DANEI THREE
KEKEE FOUR

Approaches
Chart Name Download
ILS OR LOC RWY 06L
ILS OR LOC RWY 18
ILS OR LOC RWY 24L
ILS OR LOC RWY 24R
ILS RWY 06L (CAT II - III)
RNAV (RNP) Y RWY 06L
RNAV (RNP) Y RWY 24R
RNAV (GPS) RWY 06R
RNAV (GPS) RWY 18
RNAV (GPS) RWY 24L
RNAV (GPS) RWY 36
RNAV (GPS) Z RWY 06L
RNAV (GPS) Z RWY 24R


Airport Statistics
Departures Arrivals Local
All Collected Stats since June 2016: 558 427 14
2021 Stats: 81 64 0
May Stats: 5 3 0

Inbound Traffic (Arrivals) - 0

No inbound traffic.


Outbound Traffic (Departures) - 0

No outbound traffic.


Local Traffic (Pattern) - 0

No local traffic.